�������l�o���
Date,Time,MP-1(��Sv/h),MP-2(��Sv/h),MP-3(��Sv/h),MP-4(��Sv/h),MP-5(��Sv/h),MP-6(��Sv/h),MP-7(��Sv/h),MP-8(��Sv/h),����,����(m/s),���J
2020/05/29,00:00,0.693,0.997,0.626,1.201,0.862,0.403,0.690,0.647,��,3.8,��
2020/05/29,00:10,0.693,0.997,0.626,1.199,0.859,0.403,0.690,0.649,��,4.2,��
2020/05/29,00:20,0.693,0.998,0.626,1.199,0.861,0.403,0.689,0.650,��,1.2,��
2020/05/29,00:30,0.694,0.996,0.626,1.199,0.861,0.401,0.690,0.648,�쐼,0.9,��
2020/05/29,00:40,0.693,0.996,0.628,1.200,0.862,0.401,0.690,0.648,��,0.6,��
2020/05/29,00:50,0.692,0.996,0.628,1.199,0.860,0.402,0.691,0.648,��쐼,0.9,��
2020/05/29,01:00,0.694,0.996,0.628,1.198,0.861,0.403,0.692,0.646,��쐼,2.0,��
2020/05/29,01:10,0.694,0.997,0.626,1.201,0.859,0.402,0.691,0.648,���쐼,2.2,��
2020/05/29,01:20,0.694,0.997,0.627,1.199,0.860,0.402,0.690,0.646,���쐼,2.3,��
2020/05/29,01:30,0.695,0.996,0.626,1.201,0.862,0.402,0.690,0.648,��,4.7,��
2020/05/29,01:40,0.693,0.997,0.628,1.198,0.862,0.401,0.690,0.649,��,6.2,��
2020/05/29,01:50,0.692,0.997,0.628,1.200,0.863,0.402,0.689,0.649,��,6.1,��
2020/05/29,02:00,0.694,0.998,0.628,1.199,0.861,0.401,0.688,0.648,���쐼,5.4,��
2020/05/29,02:10,0.695,0.997,0.627,1.199,0.860,0.400,0.689,0.649,��,5.6,��
2020/05/29,02:20,0.691,0.997,0.626,1.199,0.860,0.401,0.690,0.649,��,6.5,��
2020/05/29,02:30,0.692,0.995,0.628,1.200,0.859,0.401,0.689,0.649,��,6.3,��
2020/05/29,02:40,0.691,0.994,0.627,1.202,0.861,0.403,0.689,0.648,���쐼,5.9,��
2020/05/29,02:50,0.694,0.994,0.627,1.201,0.861,0.401,0.690,0.648,��,6.2,��
2020/05/29,03:00,0.693,0.996,0.626,1.197,0.860,0.401,0.690,0.645,���쐼,5.2,��
2020/05/29,03:10,0.694,0.997,0.627,1.201,0.860,0.401,0.688,0.647,���쐼,4.3,��
2020/05/29,03:20,0.692,0.995,0.628,1.197,0.863,0.401,0.689,0.648,���쐼,4.3,��
2020/05/29,03:30,0.693,0.996,0.625,1.199,0.861,0.400,0.688,0.647,���쐼,4.3,��
2020/05/29,03:40,0.692,0.992,0.626,1.199,0.859,0.403,0.690,0.647,���쐼,5.5,��
2020/05/29,03:50,0.691,0.997,0.627,1.199,0.860,0.401,0.689,0.648,��,6.1,��
2020/05/29,04:00,0.691,0.996,0.626,1.198,0.859,0.400,0.690,0.647,��,5.5,��
2020/05/29,04:10,0.693,0.993,0.625,1.199,0.859,0.401,0.689,0.648,��,4.3,��
2020/05/29,04:20,0.692,0.994,0.627,1.202,0.858,0.402,0.690,0.650,���k��,3.1,��
2020/05/29,04:30,0.693,0.992,0.626,1.201,0.861,0.400,0.690,0.648,��,3.1,��
2020/05/29,04:40,0.692,0.997,0.624,1.200,0.861,0.401,0.690,0.648,���쐼,3.4,��
2020/05/29,04:50,0.691,0.993,0.627,1.200,0.859,0.402,0.689,0.647,��,3.7,��
2020/05/29,05:00,0.691,0.995,0.628,1.197,0.860,0.401,0.689,0.647,��,3.3,��
2020/05/29,05:10,0.693,0.994,0.626,1.198,0.859,0.400,0.691,0.648,��,2.6,��
2020/05/29,05:20,0.692,0.996,0.627,1.198,0.860,0.400,0.690,0.647,��,1.9,��
2020/05/29,05:30,0.692,0.995,0.626,1.200,0.861,0.400,0.690,0.649,�k��,1.7,��
2020/05/29,05:40,0.692,0.994,0.627,1.199,0.862,0.400,0.689,0.649,��쐼,0.9,��
2020/05/29,05:50,0.694,0.998,0.626,1.199,0.859,0.400,0.691,0.649,��,1.2,��
2020/05/29,06:00,0.694,0.997,0.628,1.201,0.861,0.401,0.691,0.649,�k��,1.5,��
2020/05/29,06:10,0.694,0.998,0.626,1.200,0.861,0.401,0.691,0.648,�k��,1.5,��
2020/05/29,06:20,0.693,0.994,0.628,1.201,0.860,0.400,0.690,0.650,�k�k��,3.0,��
2020/05/29,06:30,0.694,0.994,0.627,1.198,0.860,0.401,0.690,0.649,�k��,4.1,��
2020/05/29,06:40,0.695,0.994,0.626,1.200,0.860,0.401,0.692,0.648,�k��,3.5,��
2020/05/29,06:50,0.693,0.994,0.627,1.201,0.861,0.400,0.689,0.648,�k��,3.1,��
2020/05/29,07:00,0.694,0.994,0.626,1.205,0.861,0.399,0.692,0.649,�k��,3.0,��
2020/05/29,07:10,0.693,0.997,0.625,1.201,0.860,0.399,0.691,0.649,�k��,4.9,��
2020/05/29,07:20,0.695,0.994,0.626,1.202,0.860,0.399,0.691,0.650,�k,4.7,��
2020/05/29,07:30,0.694,0.995,0.626,1.203,0.860,0.399,0.690,0.650,�k�k��,6.9,��
2020/05/29,07:40,0.691,0.994,0.625,1.204,0.861,0.399,0.689,0.650,�k�k��,7.1,��
2020/05/29,07:50,0.691,0.995,0.627,1.201,0.860,0.397,0.688,0.649,�k��,6.8,��
2020/05/29,08:00,0.691,0.993,0.627,1.203,0.860,0.397,0.689,0.648,�k��,7.6,��
2020/05/29,08:10,0.691,0.992,0.629,1.203,0.860,0.395,0.687,0.645,�k�k��,6.8,��
2020/05/29,08:20,0.692,0.993,0.627,1.203,0.861,0.396,0.688,0.646,�k�k��,5.1,��
2020/05/29,08:30,0.690,0.993,0.635,1.203,0.861,0.396,0.688,0.647,�k�k��,5.0,��
2020/05/29,08:40,0.691,0.993,0.630,1.201,0.859,0.396,0.689,0.646,�k�k��,5.0,��
2020/05/29,08:50,0.692,0.992,0.626,1.202,0.861,0.398,0.687,0.646,�k�k��,5.4,��
2020/05/29,09:00,0.693,0.992,0.627,1.204,0.860,0.397,0.688,0.645,�k��,4.7,��
2020/05/29,09:10,0.693,0.989,0.626,1.203,0.862,0.397,0.688,0.647,�k�k��,4.4,��
2020/05/29,09:20,0.693,0.992,0.627,1.204,0.862,0.396,0.689,0.648,�k�k��,2.6,��
2020/05/29,09:30,0.693,0.991,0.626,1.201,0.860,0.397,0.688,0.645,�k��,2.8,��
2020/05/29,09:40,0.694,0.989,0.626,1.201,0.864,0.398,0.689,0.645,�k��,2.3,��
2020/05/29,09:50,0.694,0.990,0.626,1.203,0.863,0.397,0.690,0.645,�k��,2.2,��
2020/05/29,10:00,0.695,0.994,0.625,1.203,0.861,0.395,0.689,0.646,���k��,2.0,��
2020/05/29,10:10,0.694,0.991,0.632,1.205,0.864,0.397,0.689,0.646,��,2.3,��
2020/05/29,10:20,0.694,0.991,0.635,1.201,0.863,0.397,0.688,0.647,���k��,2.5,��
2020/05/29,10:30,0.695,0.990,0.632,1.203,0.862,0.399,0.690,0.647,��,2.6,��
2020/05/29,10:40,0.694,0.995,0.633,1.204,0.864,0.398,0.688,0.647,���k��,3.1,��
2020/05/29,10:50,0.695,0.995,0.634,1.203,0.862,0.398,0.691,0.647,��,2.8,��
2020/05/29,11:00,0.695,0.996,0.634,1.206,0.864,0.398,0.688,0.648,��,2.6,��
2020/05/29,11:10,0.696,0.997,0.635,1.204,0.865,0.399,0.688,0.647,��,2.6,��
2020/05/29,11:20,0.695,0.997,0.634,1.202,0.866,0.399,0.690,0.648,��,3.4,��
2020/05/29,11:30,0.695,0.996,0.636,1.201,0.868,0.398,0.689,0.647,���쓌,2.9,��
2020/05/29,11:40,0.694,0.997,0.634,1.204,0.866,0.401,0.690,0.648,���쓌,1.9,��
2020/05/29,11:50,0.693,1.000,0.636,1.200,0.867,0.398,0.690,0.648,���쓌,3.3,��
2020/05/29,12:00,0.696,1.001,0.635,1.201,0.864,0.399,0.690,0.647,��쓌,1.9,��
2020/05/29,12:10,0.697,1.002,0.635,1.202,0.867,0.399,0.691,0.646,��쓌,3.1,��
2020/05/29,12:20,0.696,1.003,0.634,1.203,0.868,0.398,0.689,0.647,��쓌,3.5,��
2020/05/29,12:30,0.697,1.002,0.633,1.204,0.866,0.399,0.691,0.648,�쓌,4.3,��
2020/05/29,12:40,0.695,1.001,0.634,1.202,0.867,0.401,0.690,0.648,�쓌,4.6,��
2020/05/29,12:50,0.696,1.003,0.630,1.205,0.869,0.399,0.690,0.648,��쓌,5.2,��
2020/05/29,13:00,0.696,0.999,0.628,1.204,0.869,0.399,0.692,0.647,�쓌,4.7,��
2020/05/29,13:10,0.697,1.001,0.629,1.203,0.867,0.400,0.689,0.647,��쓌,5.8,��
2020/05/29,13:20,0.698,1.000,0.630,1.204,0.869,0.399,0.691,0.646,�쓌,5.6,��
2020/05/29,13:30,0.697,0.999,0.634,1.204,0.870,0.400,0.690,0.647,�쓌,5.1,��
2020/05/29,13:40,0.696,1.000,0.637,1.205,0.869,0.400,0.690,0.648,��쓌,5.1,��
2020/05/29,13:50,0.696,0.997,0.638,1.205,0.870,0.400,0.689,0.647,��쓌,6.9,��
2020/05/29,14:00,0.697,1.000,0.637,1.204,0.869,0.400,0.690,0.648,��쓌,6.1,��
2020/05/29,14:10,0.698,1.000,0.636,1.204,0.868,0.400,0.691,0.647,�쓌,5.2,��
2020/05/29,14:20,0.696,1.000,0.639,1.205,0.868,0.401,0.690,0.649,��쓌,5.1,��
2020/05/29,14:30,0.697,1.004,0.640,1.204,0.870,0.401,0.691,0.648,�쓌,5.1,��
2020/05/29,14:40,0.697,1.002,0.638,1.208,0.870,0.400,0.691,0.648,�쓌,5.4,��
2020/05/29,14:50,0.697,1.003,0.638,1.205,0.869,0.401,0.691,0.648,��쓌,4.4,��
2020/05/29,15:00,0.698,1.006,0.639,1.207,0.870,0.400,0.692,0.647,�쓌,4.4,��
2020/05/29,15:10,0.698,1.004,0.637,1.209,0.870,0.402,0.691,0.647,��쓌,3.7,��
2020/05/29,15:20,0.697,1.004,0.637,1.205,0.869,0.400,0.690,0.647,�쓌,3.7,��
2020/05/29,15:30,0.698,1.006,0.640,1.206,0.870,0.401,0.689,0.649,��쓌,4.7,��
2020/05/29,15:40,0.697,1.006,0.639,1.208,0.869,0.400,0.690,0.648,��쓌,5.2,��
2020/05/29,15:50,0.698,1.005,0.638,1.206,0.871,0.403,0.691,0.647,��쓌,5.0,��
2020/05/29,16:00,0.698,1.006,0.638,1.204,0.871,0.402,0.691,0.649,��쓌,5.2,��
2020/05/29,16:10,0.698,1.006,0.637,1.204,0.868,0.401,0.690,0.649,��쓌,5.4,��
2020/05/29,16:20,0.697,1.007,0.638,1.206,0.869,0.402,0.690,0.647,��쓌,5.4,��
2020/05/29,16:30,0.699,1.006,0.638,1.209,0.869,0.402,0.691,0.647,��쓌,5.6,��
2020/05/29,16:40,0.698,1.008,0.638,1.208,0.870,0.402,0.691,0.648,��쓌,5.6,��
2020/05/29,16:50,0.696,1.006,0.638,1.206,0.870,0.400,0.690,0.648,��,5.0,��
2020/05/29,17:00,0.697,1.006,0.638,1.211,0.871,0.403,0.690,0.646,��,4.6,��
2020/05/29,17:10,0.698,1.010,0.639,1.207,0.870,0.399,0.690,0.649,��쐼,4.2,��
2020/05/29,17:20,0.699,1.007,0.638,1.207,0.871,0.402,0.690,0.647,��,4.7,��
2020/05/29,17:30,0.697,1.009,0.639,1.209,0.870,0.401,0.691,0.649,��,4.2,��
2020/05/29,17:40,0.698,1.010,0.638,1.207,0.871,0.403,0.692,0.648,��,4.7,��
2020/05/29,17:50,0.698,1.012,0.638,1.208,0.869,0.403,0.691,0.651,��쐼,4.4,��
2020/05/29,18:00,0.696,1.010,0.638,1.207,0.869,0.403,0.689,0.648,��,5.0,��
2020/05/29,18:10,0.698,1.010,0.640,1.209,0.869,0.403,0.690,0.650,��,5.1,��
2020/05/29,18:20,0.696,1.011,0.640,1.211,0.871,0.403,0.690,0.651,��,5.2,��
2020/05/29,18:30,0.697,1.009,0.641,1.211,0.870,0.403,0.690,0.651,��,4.9,��
2020/05/29,18:40,0.697,1.011,0.640,1.211,0.872,0.403,0.689,0.650,��,4.5,��
2020/05/29,18:50,0.699,1.010,0.641,1.213,0.874,0.403,0.688,0.650,��,5.2,��
2020/05/29,19:00,0.699,1.008,0.639,1.212,0.873,0.402,0.691,0.651,��,5.8,��
2020/05/29,19:10,0.700,1.010,0.641,1.212,0.872,0.404,0.691,0.651,��쐼,6.2,��
2020/05/29,19:20,0.699,1.009,0.641,1.212,0.872,0.404,0.693,0.650,��쐼,5.9,��
2020/05/29,19:30,0.697,1.013,0.641,1.211,0.871,0.403,0.693,0.652,��쐼,5.7,��
2020/05/29,19:40,0.698,1.012,0.643,1.210,0.872,0.405,0.691,0.650,��쐼,5.6,��
2020/05/29,19:50,0.701,1.012,0.639,1.209,0.873,0.404,0.692,0.649,��쐼,5.6,��
2020/05/29,20:00,0.699,1.009,0.639,1.212,0.873,0.405,0.691,0.650,��쐼,4.5,��
2020/05/29,20:10,0.701,1.011,0.640,1.211,0.869,0.404,0.692,0.650,�쐼,3.1,��
2020/05/29,20:20,0.700,1.010,0.640,1.209,0.872,0.404,0.691,0.648,�쐼,2.6,��
2020/05/29,20:30,0.700,1.009,0.640,1.212,0.873,0.404,0.692,0.650,��,2.0,��
2020/05/29,20:40,0.699,1.010,0.640,1.210,0.872,0.404,0.693,0.650,�k��,2.0,��
2020/05/29,20:50,0.700,1.009,0.641,1.212,0.874,0.403,0.692,0.650,�k��,3.4,��
2020/05/29,21:00,0.698,1.008,0.639,1.212,0.874,0.404,0.692,0.650,�k��,6.1,��
2020/05/29,21:10,0.701,1.008,0.640,1.210,0.873,0.405,0.690,0.649,���k��,6.4,��
2020/05/29,21:20,0.701,1.007,0.641,1.210,0.870,0.404,0.691,0.649,�k��,5.9,��
2020/05/29,21:30,0.699,1.006,0.641,1.212,0.870,0.404,0.692,0.649,���k��,5.2,��
2020/05/29,21:40,0.699,1.008,0.640,1.211,0.872,0.404,0.692,0.648,���k��,5.5,��
2020/05/29,21:50,0.699,1.007,0.641,1.210,0.871,0.404,0.692,0.648,�k��,5.2,��
2020/05/29,22:00,0.699,1.009,0.639,1.212,0.873,0.405,0.691,0.649,���k��,4.5,��
2020/05/29,22:10,0.699,1.006,0.639,1.212,0.870,0.404,0.693,0.650,���k��,4.9,��
2020/05/29,22:20,0.698,1.008,0.638,1.212,0.871,0.404,0.691,0.649,���k��,6.7,��
2020/05/29,22:30,0.698,1.007,0.641,1.212,0.871,0.403,0.692,0.651,���k��,6.4,��
2020/05/29,22:40,0.697,1.006,0.641,1.211,0.871,0.404,0.692,0.650,���k��,7.0,��
2020/05/29,22:50,0.700,1.008,0.639,1.213,0.871,0.403,0.690,0.650,��,5.7,��
2020/05/29,23:00,0.699,1.007,0.638,1.210,0.869,0.403,0.692,0.649,���k��,5.3,��
2020/05/29,23:10,0.697,1.006,0.641,1.210,0.870,0.402,0.692,0.648,���k��,5.7,��
2020/05/29,23:20,0.698,1.008,0.638,1.213,0.871,0.402,0.693,0.650,���k��,5.8,��
2020/05/29,23:30,0.699,1.006,0.641,1.213,0.872,0.403,0.692,0.649,���k��,6.1,��
2020/05/29,23:40,0.696,1.005,0.640,1.211,0.870,0.404,0.692,0.650,�k��,5.2,��
2020/05/29,23:50,0.699,1.008,0.640,1.214,0.871,0.401,0.691,0.649,���k��,4.7,��
